Вернуться в каталог

STARLINK-5394

АктивенСвязьVLEO
NORAD 54830·PAYLOAD·🇺🇸 United States

Запущен Dec 28, 2022 с Cape Canaveral Space Force Station

Loading…

Ближайшие Пролёты (ближайшие 24 часа)

TLE

СвежийSource: CelesTrak SupGP

Эпоха: Sep 15, 2026, 01:41 UTC

1 54830C 22177L   26258.07062500 -.00038177  00000+0 -13838-2 0  2582
2 54830  43.0025 146.8904 0001210 281.6784  40.9925 15.27573068    12

Отслеживайте STARLINK-5394 в реальном времени с AllMySat

Download on the App Store